Flag for Netherlands Weather past 2 weeks in Kralendijk (Bonaire), Netherlands

Now
81 °F

Warm.


Feels Like: 85 °F
Forecast: 79 / 87 °F
Wind: 14 mph from Northeast

Location: Flamingo Airport - Bonaire


UV Index: 10 (Very high)

Visibility: N/A


Pressure: 29.89 "Hg

Humidity: 74%

Dew point: 72 °F

Location of Kralendijk (Bonaire)Location

Historic Weather in Kralendijk (Bonaire)

°F

Kralendijk (Bonaire) temperature yesterday

Maximum temperature yesterday: 86 °F (at 2:00 PM)
Minimum temperature yesterday: 79 °F (at 1:00 AM)
Average temperature yesterday: 81 °F

Past Weeks' High & Low Weather Summary

 TemperatureHumidityPressure
High88 °F (Apr 9, 12:00 PM)84% (Apr 2, 2:00 AM)30.04 "Hg (Apr 2, 2:00 AM)
Low77 °F (Apr 14, 6:00 AM)58% (Apr 11, 5:00 PM)29.80 "Hg (Apr 14, 5:00 PM)
Average82 °F74%29.91 "Hg
* Reported Apr 1 10:00 PM — Apr 16 10:00 PM, Kralendijk (Bonaire), Weather by CustomWeather, © 2014

Note: Actual official high and low records may vary slightly from our data, if they occured in-between our weather recording intervals... More about our weather records

Advertising

Historic Weather Conditions — Data for Previous 24 hours

 ConditionsComfort  
Time TempWeatherWind HumidityBarometerVisibility
10:00 PM
Apr 16
81 °FWarm.14 mph74%29.89 "HgN/A
8:00 PM81 °FPassing clouds.15 mph74%29.86 "HgN/A
7:00 PM81 °FPassing clouds.14 mph74%29.83 "HgN/A
6:00 PM82 °FPassing clouds.17 mph74%29.83 "HgN/A
5:00 PM84 °FPassing clouds.18 mph70%29.83 "HgN/A
4:00 PM84 °FPassing clouds.17 mph66%29.83 "HgN/A
3:00 PM86 °FPassing clouds.16 mph66%29.86 "HgN/A
2:00 PM86 °FScattered clouds.17 mph62%29.89 "HgN/A
1:00 PM84 °FWarm.18 mph70%29.92 "HgN/A
11:00 AM84 °FPartly sunny.18 mph70%29.92 "HgN/A
10:00 AM84 °FWarm.17 mph70%29.92 "HgN/A
9:00 AM82 °FScattered clouds.18 mph74%29.92 "HgN/A
8:00 AM81 °FWarm.15 mph79%29.89 "HgN/A
6:55 AM79 °FScattered clouds.13 mph84%29.86 "HgN/A
6:00 AM79 °FWarm.12 mph84%29.86 "HgN/A
5:00 AM79 °FWarm.13 mph84%29.86 "HgN/A
4:00 AM79 °FWarm.12 mph84%29.83 "HgN/A
3:00 AM79 °FWarm.12 mph84%29.86 "HgN/A
12:55 AM79 °FWarm.12 mph84%29.89 "HgN/A
Weather by CustomWeather, © 2014

See weather overview